Regional Weather Roundup
Issued by NWS

Home | Current Version | Previous Version | Graphics & Text | Print | Product List | Glossary On
Versions: 1 2 3 4 5 6 7 8 9 10 11 12 13 14 15 16 17 18 19 20 21 22 23 24 25 26 27 28 29 30 31 32 33 34 35 36 37 38 39 40 41 42 43 44 45 46 47 48 49 50
000
ASUS43 KLOT 250203
RWRIL

ILLINOIS REGIONAL WEATHER ROUNDUP
NATIONAL WEATHER SERVICE CHICAGO/ROMEOVILLE IL
900 PM CDT MON APR 24 2017

NOTE: "FAIR" INDICATES FEW OR NO CLOUDS BELOW 12,000 FEET WITH NO
SIGNIFICANT WEATHER AND/OR OBSTRUCTIONS TO VISIBILITY.

* THESE STATIONS ARE NOT UNDER NWS QUALITY CONTROL. THEY ALSO MAY NOT
  REPORT WEATHER SUCH AS PRECIPITATION OR FOG.

ILZ001-002-007-009-015-016-024-250300-
NORTHWEST ILLINOIS

CITY           SKY/WX    TMP DP  RH WIND       PRES   REMARKS
MOLINE         CLOUDY    59  37  44 SE9       29.67F
STERLING*      CLOUDY    60  33  36 E7        29.72R
SAVANNA*       CLOUDY    62  32  31 SE8       29.70S
$$

ILZ003-004-008-010-011-017-018-250300-
NORTH CENTRAL ILLINOIS

CITY           SKY/WX    TMP DP  RH WIND       PRES   REMARKS
ROCKFORD       PTCLDY    63  32  31 SE8       29.76R
FREEPORT*      CLOUDY    58  32  37 SE9       29.75R
ROCHELLE*      CLEAR     58  32  37 E8        29.75R
DE KALB*       PTCLDY    56  33  41 E9        29.76R
PERU*          CLEAR     66  27  22 SE10      29.73R
$$

ILZ005-006-012>014-019>023-250300-
NORTHEAST ILLINOIS

CITY           SKY/WX    TMP DP  RH WIND       PRES   REMARKS
CHICAGO-OHARE  PTCLDY    58  32  37 E6        29.77R
CHICAGO-MIDWAY PTCLDY    59  37  44 E9        29.77F
AURORA         CLEAR     61  32  33 E13       29.75S
LANSING*       CLEAR     55  43  65 E3        29.77F
JOLIET*        CLEAR     61  36  39 E3        29.76S
WAUKEGAN       PTCLDY    49  35  58 E5        29.78R
DUPAGE AIRPORT CLEAR     60  32  34 E8        29.75S
KANKAKEE*      CLEAR     59  37  44 E8        29.76F
WHEELING       PTCLDY    54  34  46 E5        29.79R
MORRIS*        CLEAR     63  34  33 CALM      29.73S
ROMEOVILLE*    CLEAR     58  38  48 E6        29.76S
NORTHERLY ISL    N/A     52  39  61 CALM        N/A
$$

LMZ740>746-250300-
SOUTHERN LAKE MICHIGAN

STATION/POSITION SKY/WX   TEMP    WIND        PRES    VSBY  WAVE
                          AIR SEA DIR/SP/G                  HT/PER
                          (F)     (DEG/KT/KT) (MB)    (MI)  (FT/S)
SOUTHERN BUOY              48 43   50/  6/  6 1009.6          1/ 5
HARRISON CRIB              54     100/ 19/ 20   N/A
BURNHAM HARBOR             52      CALM  /  8   N/A
CALUMET HARBOR             54      80/  4/  6 1007.8F
BURNS HARBOR               67     110/ 11/ 16 1009.1S
MICHIGAN CITY              66      90/  8/ 10   N/A
ST. JOSEPH                 61 52  140/  8/ 12 1009.6R         1/ 2
$$

ILZ025>027-034>036-040-047-049-050-058-095>099-250300-
WEST-CENTRAL ILLINOIS

CITY           SKY/WX    TMP DP  RH WIND       PRES   REMARKS
QUINCY         CLEAR     61  32  33 SE7       29.67F
GALESBURG*     CLOUDY    57  33  40 CALM      29.69S
MACOMB*        PTCLDY    63  27  25 SE7       29.71S
JACKSONVILLE*  CLEAR     64  31  29 SE6       29.70R
PITTSFIELD*    CLEAR     63  34  34 SE8       29.70R
$$

ILZ028>032-037-038-041>044-048-051>054-059>061-250300-
CENTRAL ILLINOIS

CITY           SKY/WX    TMP DP  RH WIND       PRES   REMARKS
PONTIAC        CLEAR     61  35  38 E9        29.75R
BLOOMINGTON    CLEAR     62  30  29 SE9       29.74S
DECATUR        CLEAR     61  33  35 S7        29.73R
PEORIA         PTCLDY    69  24  18 SE7       29.70S
LACON*         PTCLDY    67  27  22 SE9       29.70R
LINCOLN*       CLEAR     62  33  34 S5        29.72R
SPRINGFIELD    CLEAR     62  31  31 SE10      29.70F
TAYLORVILLE    CLEAR     64  32  29 SE3       29.73R
$$

ILZ033-039-045-046-055>057-062-063-250300-
EAST-CENTRAL ILLINOIS

CITY           SKY/WX    TMP DP  RH WIND       PRES   REMARKS
CHAMPAIGN      CLEAR     60  35  39 E9        29.74F
MATTOON        CLEAR     60  40  47 SE5       29.73F
PARIS*         CLEAR     59  42  52 CALM      29.76F
$$

ILZ079-100>102-250300-
SOUTHWEST ILLINOIS

CITY           SKY/WX    TMP DP  RH WIND       PRES   REMARKS
ALTON          CLEAR     59  36  41 SE6       29.71F
BELLEVILLE     CLEAR     60  41  50 CALM      29.72R
CAHOKIA*       CLEAR     59  40  49 S3        29.71S
SPARTA*        CLEAR     62  42  47 CALM      29.74R
$$

ILZ064>066-069>071-074>076-080>082-084>086-088>090-092>094-250300-
SOUTH-CENTRAL ILLINOIS

CITY           SKY/WX    TMP DP  RH WIND       PRES   REMARKS
CARBONDALE     CLEAR     59  53  80 E5        29.73F
CAIRO*         CLEAR     61  53  74 CALM      29.74R
EFFINGHAM*     CLEAR     58  45  61 CALM      29.74F
MARION         CLEAR     59  48  67 CALM      29.74F
MT. VERNON     CLEAR     52  49  89 CALM      29.74S
CENTRALIA*     CLEAR     59  47  64 CALM      29.72F
SALEM*         CLEAR     62  42  48 SE3       29.73F
$$

ILZ067-068-072-073-078-083-087-091-250300-
SOUTHEAST ILLINOIS

CITY           SKY/WX    TMP DP  RH WIND       PRES   REMARKS
LAWRENCEVILLE  CLEAR     63  46  54 E7        29.74R
FLORA*         CLEAR     59  47  64 CALM      29.74S
FAIRFIELD*     CLEAR     59  52  78 CALM      29.73S
HARRISBURG*    CLEAR     60  51  73 CALM      29.75R
ROBINSON*      CLEAR     56  46  68 CALM      29.76R
CARMI*         CLEAR     59  50  73 SW3       29.74R
$$

ABBREVIATIONS USED IN REMARKS
   TC - TEMPERATURE IN CELSIUS
  WCI - WIND CHILL INDEX
   HX - HEAT INDEX
  VSB - VISIBILITY
$$





USA.gov is the U.S. government's official web portal to all federal, state and local government web resources and services.